sat.trackr.live / text

‹ back to catalog

STARLINK-6139

NORAD 57109 · 2023-090J

PAYLOAD ACTIVE UNKNOWN

§ Identity

Operator
Country
US
Launch date
2023-06-23
Launch site
AFETR
Launch vehicle
Mass (kg)
RCS (m²)

Purposes: comms

External: N2YO · Heavens-Above · Gunter

§ Orbital elements

Epoch: 2026-05-24T21:44:52.965312Z

Period
94.27 min
Inclination
43.0030°
Eccentricity
0.0002068
Mean motion
15.27576943 rev/d
Perigee alt
481.6 km
Apogee alt
484.5 km
Semi-major
6,861.2 km
B*
2.7705e-5
RAAN
211.5561°
Arg perigee
282.9123°
Mean anomaly
77.1497°
Rev number
16,198

§ Raw data

STARLINK-61391 57109U 23090J   26144.90616858  .00000500  00000+0  27705-4 0  99952 57109  43.0030 211.5561 0002068 282.9123  77.1497 15.27576943161987

JSON: /api/v1/satellites/57109 · /tle

For live sub-satellite position, see the globe view (requires WebGL).

§ Visibility from observer

Set your observer location to see the next 7 days of passes ≥ 10°. The values pass through the URL so the page stays shareable.

No JS? Fill the form by hand. The geolocation button needs JavaScript.